Location: Dvur Kralove nad Labem
(50.4330°N, 15.8170°E)
Time: 21:00:13
(UTC+02:00)

ISS - Pass Details

Date: 23 May 2022
Orbit: 414 x 420 km, 51.6° (Epoch: 30 June)

Event Time Altitude Azimuth Distance (km) Brightness Sun altitude
Rises 23:08:54 0° 286° (WNW) 2,369 0.7 -15.2°
Reaches altitude 10° 23:11:02 10° 283° (WNW) 1,501 -0.4 -15.3°
Maximum altitude 23:14:20 58° 203° (SSW) 493 -3.7 -15.6°
Enters shadow 23:15:20 38° 144° (SE) 653 -3.3 -15.6°
